Regional Weather Roundup
Issued by NWS

Home | Current Version | Previous Version | Graphics & Text | Print | Product List | Glossary On
Versions: 1 2 3 4 5 6 7 8 9 10 11 12 13 14 15 16 17 18 19 20 21 22 23 24 25 26 27 28 29 30 31 32 33 34 35 36 37 38 39 40 41 42 43 44 45 46 47 48 49 50
000
ASUS43 KMKX 230211
RWRWI

WISCONSIN REGIONAL WEATHER ROUNDUP
NATIONAL WEATHER SERVICE MILWAUKEE/SULLIVAN WI
900 PM CDT FRI SEP 22 2017

NOTE: "FAIR" INDICATES FEW OR NO CLOUDS BELOW 12,000 FEET WITH NO
SIGNIFICANT WEATHER AND/OR OBSTRUCTIONS TO VISIBILITY.

WIZ001-002-006>008-014>016-023>028-230300-
NORTHWEST WISCONSIN

CITY           SKY/WX    TMP DP  RH WIND       PRES   REMARKS
SUPERIOR ARPT  CLEAR     62  61  97 CALM      29.81R
ASHLAND        CLEAR     80  68  66 S9G18     29.82F HX  83
HAYWARD        CLEAR     80  67  64 S14G22    29.86S HX  82
SIREN          PTCLDY    82  64  53 S12G18    29.83R HX  84
CUMBERLAND     CLEAR     75  63  64 SE8       29.87S
RICE LAKE      CLEAR     77  66  68 SE7       29.89R
CHETEK         CLEAR     79  69  71 S8        29.88R HX  81
LADYSMITH      CLEAR     79  67  66 SE7       29.93R HX  81
EAU CLAIRE     PTCLDY    82  67  60 S10       29.89R HX  84
MENOMONIE      CLEAR     78  66  65 SE6       29.88R HX  80
NEW RICHMOND   PTCLDY    81  64  55 S13G21    29.84S HX  82
OSCEOLA        PTCLDY    82  65  57 S14       29.85R HX  84
$$

WIZ003>005-009-010-017-018-230300-
NORTH CENTRAL WISCONSIN

CITY           SKY/WX    TMP DP  RH WIND       PRES   REMARKS
MANITOWISH WTR NOT AVBL
ARBOR VITAE    CLEAR     72  68  87 S8        29.96S
WOODRUFF       CLEAR     72  68  87 S8        29.96S
RHINELANDER    CLEAR     70  67  90 S5        29.99S
EAGLE RIVER    CLEAR     69  67  92 S6        29.98R
LAND O LAKES   CLEAR     70  66  87 S8        29.99S
PHILLIPS       CLEAR     76  68  76 S7        29.93S
TOMAHAWK       CLEAR     69  66  89 CALM      29.97F
MEDFORD        CLEAR     73  66  79 S8        29.97S
MERRILL        CLEAR     72  70  92 CALM      29.98S
$$

WIZ029-030-035-036-043>047-230300-
CENTRAL WISCONSIN

CITY           SKY/WX    TMP DP  RH WIND       PRES   REMARKS
WAUSAU         CLEAR     75  66  73 S6        29.96S
MOSINEE        PTCLDY    73  66  78 S7        29.99S
MARSHFIELD     CLEAR     75  65  70 S9        29.98R
STEVENS POINT  CLEAR     76  65  67 S7        29.99S
WAUPACA        CLEAR     78  67  69 SE8       29.99R HX  80
WAUTOMA        CLEAR     71  68  90 CALM      30.00R
WISC RAPIDS    CLEAR     78  66  66 S6        29.99S HX  80
CAMP DOUGLAS   CLEAR     76  66  70 SE6       29.97R
$$

WIZ011>013-019>022-031-037>040-048>050-230300-
NORTHEAST WISCONSIN

CITY           SKY/WX    TMP DP  RH WIND       PRES   REMARKS
ANTIGO         CLEAR     67  65  93 SE6       30.01S
SHAWANO        CLEAR     70  66  87 CALM      29.98R
OCONTO         CLEAR     72  67  84 S3        29.98R
STURGEON BAY   CLEAR     72  67  84 S8        30.00R
GREEN BAY      CLEAR     73  70  90 S7        29.98S
MANITOWOC      CLEAR     71  67  87 S8        30.02S
APPLETON       PTCLDY    75  66  73 S8        29.99S
CLINTONVILLE   CLEAR     75  64  69 S6        29.98R
OSHKOSH        CLEAR     74  69  85 S5        30.00R
$$

WIZ032>034-041-042-053>061-230300-
SOUTHWEST WISCONSIN

CITY           SKY/WX    TMP DP  RH WIND       PRES   REMARKS
LA CROSSE      CLEAR     84  68  58 S12       29.92R HX  87
SPARTA         CLEAR     81  67  63 S7        29.96R HX  83
VIROQUA        CLEAR     79  68  68 S12       29.98S HX  81
BOSCOBEL       CLEAR     83  67  58 S6        29.97R HX  85
PRAIRIE DU CHI CLEAR     82  65  57 SE3       29.96S HX  83
PLATTEVILLE    CLEAR     76  68  76 SE7       30.01R
$$

WIZ056-057-062-063-064-067-068-230300-
SOUTH CENTRAL WISCONSIN

CITY           SKY/WX    TMP DP  RH WIND       PRES   REMARKS
REEDSBURG      CLEAR     78  66  67 S3        29.99R HX  80
BARABOO/DELLS  CLEAR     78  61  56 CALM      30.00R HX  80
LONE ROCK      CLEAR     74  67  78 E3        29.98R
MINERAL POINT  CLEAR     77  66  69 S6        30.01S
MADISON        CLEAR     79  65  62 S5        29.99S HX  81
MIDDLETON      CLEAR     72  65  79 CALM      30.01S
WATERTOWN      CLEAR     71  66  84 CALM      30.01R
MONROE         CLEAR     77  63  61 S7        30.02R
JANESVILLE     CLEAR     79  63  57 S6        30.01R HX  80
$$

WIZ051-052-058>065-066-070>072-230300-
SOUTHEAST WISCONSIN

CITY           SKY/WX    TMP DP  RH WIND       PRES   REMARKS
MILWAUKEE      CLEAR     78  68  71 S6        30.02R HX  80
WAUKESHA       CLEAR     79  64  61 S7        30.03S HX  81
MILWAUKEE/TIMM CLEAR     81  63  54 S9        30.03R HX  82
RACINE         CLEAR     78  68  71 S6        30.04S HX  80
BURLINGTON     CLEAR     73  67  82 CALM      30.02S
KENOSHA        CLEAR     78  67  68 S6        30.03S HX  80
FOND DU LAC    CLEAR     74  66  76 SE5       30.01R
SHEBOYGAN      CLEAR     67  67 100 NE5       30.02R FOG
WEST BEND        N/A     73  66  78 CALM      30.03R
JUNEAU         CLEAR     76  65  67 S6        30.02S
$$

LSZ147-162-230300-
LAKE SUPERIOR

STATION/POSITION TIME  TEMP    WIND        PRES    WAVE
                       AIR SEA DIR/SP/G            HT/PER
                 (UTC) (F)     (DEG/KT/KT) (MB)    (FT/S)
W MID LAKE BUOY  0150   59 54   80/  8/ 10 1010.3F   2/ 5
DEVILS ISLAND    0200   62      90/ 11/ 11 1009.6F
SAXON HARBOR     0140   79     180/  6/ 13 1009.1S
$$

LMZ867-665-643>646-230300-
LAKE MICHIGAN

STATION/POSITION TIME  TEMP    WIND        PRES    WAVE
                       AIR SEA DIR/SP/G            HT/PER
                 (UTC) (F)     (DEG/KT/KT) (MB)    (FT/S)
S GREEN BAY BUOY 0200   72 67  170/ 16/ 19 1014.4
N MID LAKE BUOY  0150   70 66  170/ 10/ 12 1015.9R   2/ 5
NORTHPORT PIER   0140   73     160/  7/ 12 1015.2R
KEWAUNEE LAKESHO 0148   69     190/ 12/ 15 1015.1F
SHEBOYGAN LAKESH 0200   70     160/  2/  3 1016.1R
PORT WASHINGTON  0130   72     180/  4/  6 1017.3R
ATWATER BUOY     0139   71 65  160/  8/ 10 1016.5R
MILWAUKEE LAKESH 0150   74        CALM       N/A
S MID LAKE BUOY  0150   75 70  130/  8/ 10 1016.7R   0
KENOSHA   LAKESH 0200   76     180/  9/ 11 1016.3
$$

TC  - TEMPERATURE IN CELSIUS
VSB - VISIBILITY IN STATUTE MILES
WCI - WIND CHILL INDEX
HX  - HEAT INDEX





USA.gov is the U.S. government's official web portal to all federal, state and local government web resources and services.